| time (UTC) | temp F | wind direction | speed MPH | gust MPH | rain 1hr in | rain 24hr in | rain mn in | humidity % | barometer mb |
| 20260510043312 | 47 | 99 | 0.0 | 0.0 | 0.00 | 0.00 | 0.00 | 99 | 1010.2 |
| 20260510042810 | 47 | 99 | 0.0 | 0.0 | 0.00 | 0.00 | 0.00 | 99 | 1010.4 |
| 20260510042307 | 47 | 99 | 0.0 | 1.0 | 0.00 | 0.00 | 0.00 | 99 | 1010.3 |
| 20260510041803 | 47 | 106 | 0.0 | 0.0 | 0.00 | 0.00 | 0.00 | 99 | 1010.7 |
| 20260510041300 | 47 | 106 | 0.0 | 0.0 | 0.00 | 0.00 | 0.00 | 99 | 1010.6 |
| 20260510040757 | 47 | 151 | 0.0 | 0.0 | 0.00 | 0.00 | 0.00 | 99 | 1010.3 |
| 20260510040254 | 47 | 151 | 0.0 | 0.0 | 0.00 | 0.00 | 0.00 | 99 | 1010.5 |
| 20260510035749 | 48 | 151 | 0.0 | 1.0 | 0.00 | 0.19 | 0.19 | 99 | 1010.3 |
| 20260510035245 | 48 | 165 | 0.0 | 0.0 | 0.00 | 0.19 | 0.19 | 99 | 1010.5 |
| 20260510034741 | 48 | 151 | 0.0 | 1.0 | 0.00 | 0.19 | 0.19 | 99 | 1010.4 |
| 20260510034239 | 49 | 111 | 0.0 | 0.0 | 0.00 | 0.19 | 0.19 | 99 | 1010.2 |
| 20260510033735 | 50 | 157 | 0.0 | 0.0 | 0.00 | 0.19 | 0.19 | 99 | 1010.2 |
| 20260510033233 | 49 | 174 | 0.0 | 1.0 | 0.00 | 0.19 | 0.19 | 99 | 1010.2 |
| 20260510032729 | 49 | 106 | 0.0 | 0.0 | 0.00 | 0.19 | 0.19 | 99 | 1010.2 |
| 20260510032225 | 49 | 106 | 0.0 | 0.0 | 0.00 | 0.19 | 0.19 | 99 | 1010.1 |
| 20260510031720 | 49 | 106 | 0.0 | 0.0 | 0.00 | 0.19 | 0.19 | 99 | 1010.2 |
| 20260510031216 | 49 | 106 | 0.0 | 0.0 | 0.00 | 0.19 | 0.19 | 99 | 1010.1 |
| 20260510030715 | 50 | 97 | 1.0 | 1.0 | 0.00 | 0.19 | 0.19 | 99 | 1010.1 |
| 20260510030213 | 50 | 106 | 0.0 | 0.0 | 0.00 | 0.19 | 0.19 | 99 | 1010.4 |
| 20260510025711 | 50 | 106 | 0.0 | 0.0 | 0.00 | 0.19 | 0.19 | 99 | 1010.2 |
| 20260510025208 | 50 | 106 | 0.0 | 1.0 | 0.00 | 0.19 | 0.19 | 99 | 1010.1 |
| 20260510024705 | 50 | 66 | 0.0 | 0.0 | 0.00 | 0.19 | 0.19 | 99 | 1010.2 |
| 20260510024201 | 49 | 66 | 0.0 | 0.0 | 0.00 | 0.19 | 0.19 | 99 | 1010.2 |
| 20260510023657 | 50 | 66 | 0.0 | 1.0 | 0.00 | 0.19 | 0.19 | 99 | 1010.2 |
| 20260510023154 | 49 | 90 | 0.0 | 1.0 | 0.00 | 0.19 | 0.19 | 99 | 1010.1 |
| 20260510022649 | 50 | 165 | 0.0 | 0.0 | 0.00 | 0.19 | 0.19 | 99 | 1010.2 |
| 20260510022144 | 50 | 165 | 0.0 | 1.0 | 0.00 | 0.19 | 0.19 | 99 | 1010.1 |
| 20260510021640 | 49 | 165 | 0.0 | 1.0 | 0.00 | 0.19 | 0.19 | 99 | 1010.2 |
| 20260510021138 | 49 | 166 | 1.0 | 2.0 | 0.00 | 0.19 | 0.19 | 99 | 1010.4 |
| 20260510020632 | 49 | 172 | 0.0 | 0.0 | 0.00 | 0.19 | 0.19 | 99 | 1009.9 |
| 20260510020127 | 49 | 172 | 0.0 | 0.0 | 0.00 | 0.19 | 0.19 | 99 | 1009.8 |
| 20260510015624 | 49 | 172 | 0.0 | 0.0 | 0.00 | 0.19 | 0.19 | 99 | 1009.8 |
| 20260510015120 | 49 | 180 | 0.0 | 1.0 | 0.00 | 0.19 | 0.19 | 99 | 1009.8 |
| 20260510014616 | 48 | 106 | 0.0 | 0.0 | 0.00 | 0.19 | 0.19 | 99 | 1010.0 |
| 20260510014113 | 49 | 106 | 0.0 | 0.0 | 0.00 | 0.19 | 0.19 | 99 | 1010.1 |
| 20260510013608 | 49 | 106 | 0.0 | 0.0 | 0.00 | 0.19 | 0.19 | 99 | 1010.0 |
| 20260510013103 | 49 | 180 | 0.0 | 0.0 | 0.00 | 0.19 | 0.19 | 99 | 1009.9 |
| 20260510012557 | 50 | 180 | 0.0 | 0.0 | 0.00 | 0.19 | 0.19 | 99 | 1009.8 |
| 20260510012054 | 50 | 180 | 0.0 | 0.0 | 0.00 | 0.19 | 0.19 | 99 | 1009.7 |
| 20260510011554 | 50 | 180 | 0.0 | 0.0 | 0.00 | 0.19 | 0.19 | 99 | 1009.5 |
| 20260510011050 | 50 | 180 | 0.0 | 1.0 | 0.00 | 0.19 | 0.19 | 99 | 1009.8 |
| 20260510010547 | 50 | 172 | 0.0 | 0.0 | 0.00 | 0.19 | 0.19 | 99 | 1009.6 |
| 20260510010044 | 50 | 172 | 0.0 | 0.0 | 0.00 | 0.19 | 0.19 | 99 | 1009.5 |
| 20260510005539 | 51 | 180 | 0.0 | 0.0 | 0.00 | 0.19 | 0.19 | 99 | 1009.4 |
| 20260510005037 | 51 | 172 | 0.0 | 1.0 | 0.00 | 0.19 | 0.19 | 99 | 1009.3 |
| 20260510004535 | 51 | 172 | 0.0 | 0.0 | 0.00 | 0.19 | 0.19 | 99 | 1009.5 |
| 20260510004033 | 51 | 148 | 0.0 | 1.0 | 0.00 | 0.19 | 0.19 | 99 | 1009.2 |
| 20260510003529 | 51 | 172 | 0.0 | 0.0 | 0.00 | 0.19 | 0.19 | 99 | 1009.4 |
| 20260510003024 | 51 | 172 | 0.0 | 0.0 | 0.00 | 0.19 | 0.19 | 99 | 1009.1 |
| 20260510002520 | 52 | 180 | 0.0 | 0.0 | 0.00 | 0.19 | 0.19 | 99 | 1009.0 |
| 20260510002017 | 51 | 180 | 1.0 | 1.0 | 0.00 | 0.19 | 0.19 | 99 | 1009.1 |
| 20260510001514 | 52 | 195 | 0.0 | 1.0 | 0.00 | 0.19 | 0.19 | 99 | 1009.1 |
| 20260510001012 | 52 | 180 | 0.0 | 0.0 | 0.00 | 0.19 | 0.19 | 99 | 1008.9 |
| 20260510000507 | 52 | 180 | 0.0 | 0.0 | 0.00 | 0.19 | 0.19 | 99 | 1009.0 |
| 20260510000004 | 53 | 180 | 0.0 | 0.0 | 0.00 | 0.19 | 0.19 | 99 | 1008.8 |
| 20260509235501 | 53 | 180 | 0.0 | 0.0 | 0.00 | 0.19 | 0.19 | 99 | 1008.5 |
| 20260509234957 | 53 | 180 | 0.0 | 0.0 | 0.00 | 0.19 | 0.19 | 99 | 1008.9 |
| 20260509234454 | 53 | 180 | 0.0 | 0.0 | 0.00 | 0.19 | 0.19 | 99 | 1008.7 |
| 20260509233952 | 54 | 172 | 0.0 | 0.0 | 0.00 | 0.19 | 0.19 | 99 | 1008.8 |
| 20260509233449 | 54 | 188 | 0.0 | 0.0 | 0.00 | 0.19 | 0.19 | 99 | 1008.7 |
| 20260509232945 | 54 | 188 | 0.0 | 0.0 | 0.00 | 0.19 | 0.19 | 99 | 1008.6 |
| 20260509232443 | 54 | 188 | 0.0 | 0.0 | 0.00 | 0.19 | 0.19 | 99 | 1008.7 |
| 20260509231938 | 55 | 188 | 0.0 | 0.0 | 0.00 | 0.19 | 0.19 | 99 | 1008.4 |
| 20260509231435 | 55 | 188 | 0.0 | 0.0 | 0.00 | 0.19 | 0.19 | 99 | 1008.7 |
| 20260509230934 | 56 | 188 | 0.0 | 2.0 | 0.00 | 0.19 | 0.19 | 98 | 1008.5 |
| 20260509230430 | 55 | 172 | 0.0 | 0.0 | 0.00 | 0.19 | 0.19 | 98 | 1008.6 |
| 20260509225926 | 56 | 99 | 0.0 | 0.0 | 0.00 | 0.19 | 0.19 | 97 | 1008.8 |
| 20260509225422 | 56 | 99 | 0.0 | 0.0 | 0.00 | 0.19 | 0.19 | 97 | 1008.7 |
| 20260509224919 | 56 | 99 | 0.0 | 0.0 | 0.00 | 0.19 | 0.19 | 97 | 1008.8 |
| 20260509224414 | 57 | 99 | 0.0 | 0.0 | 0.00 | 0.19 | 0.19 | 96 | 1008.7 |
| 20260509223912 | 57 | 99 | 0.0 | 0.0 | 0.00 | 0.19 | 0.19 | 96 | 1008.6 |
| 20260509223408 | 57 | 99 | 0.0 | 0.0 | 0.00 | 0.19 | 0.19 | 95 | 1008.7 |
| 20260509222905 | 58 | 99 | 0.0 | 0.0 | 0.00 | 0.19 | 0.19 | 94 | 1008.7 |
| 20260509222401 | 58 | 99 | 0.0 | 0.0 | 0.00 | 0.19 | 0.19 | 91 | 1008.9 |
| 20260509221856 | 58 | 81 | 0.0 | 0.0 | 0.00 | 0.19 | 0.19 | 91 | 1008.6 |
| 20260509221354 | 58 | 74 | 0.0 | 1.0 | 0.00 | 0.19 | 0.19 | 91 | 1008.8 |
| 20260509220849 | 59 | 14 | 0.0 | 0.0 | 0.00 | 0.19 | 0.19 | 91 | 1008.9 |
| 20260509220345 | 59 | 14 | 0.0 | 1.0 | 0.00 | 0.19 | 0.19 | 89 | 1008.9 |
| 20260509215841 | 59 | 152 | 0.0 | 0.0 | 0.00 | 0.19 | 0.19 | 88 | 1008.8 |
| 20260509215338 | 59 | 145 | 0.0 | 0.0 | 0.00 | 0.19 | 0.19 | 89 | 1008.9 |
| 20260509214835 | 59 | 145 | 0.0 | 0.0 | 0.00 | 0.19 | 0.19 | 88 | 1009.0 |
| 20260509214332 | 59 | 157 | 0.0 | 1.0 | 0.00 | 0.19 | 0.19 | 88 | 1008.9 |
| 20260509213829 | 59 | 151 | 0.0 | 2.0 | 0.00 | 0.19 | 0.19 | 90 | 1009.0 |
| 20260509213324 | 59 | 135 | 0.0 | 2.0 | 0.00 | 0.19 | 0.19 | 90 | 1008.9 |
| 20260509212822 | 59 | 145 | 0.0 | 0.0 | 0.00 | 0.19 | 0.19 | 90 | 1009.1 |
| 20260509212320 | 59 | 180 | 0.0 | 0.0 | 0.00 | 0.19 | 0.19 | 91 | 1008.8 |
| 20260509211815 | 59 | 145 | 0.0 | 0.0 | 0.00 | 0.19 | 0.19 | 89 | 1008.9 |
| 20260509211311 | 59 | 172 | 0.0 | 3.0 | 0.00 | 0.19 | 0.19 | 88 | 1009.1 |
| 20260509210808 | 59 | 334 | 0.0 | 2.0 | 0.00 | 0.19 | 0.19 | 91 | 1009.2 |
| 20260509210306 | 59 | 117 | 0.0 | 0.0 | 0.00 | 0.19 | 0.19 | 93 | 1009.2 |
| 20260509205805 | 57 | 172 | 0.0 | 0.0 | 0.00 | 0.19 | 0.19 | 92 | 1009.2 |
| 20260509205300 | 57 | 188 | 0.0 | 3.0 | 0.00 | 0.19 | 0.19 | 93 | 1009.1 |
| 20260509204756 | 57 | 172 | 0.0 | 1.0 | 0.00 | 0.19 | 0.19 | 95 | 1009.3 |
| 20260509204253 | 57 | 180 | 0.0 | 1.0 | 0.00 | 0.19 | 0.19 | 95 | 1009.2 |
| 20260509203749 | 57 | 165 | 1.0 | 2.0 | 0.00 | 0.19 | 0.19 | 96 | 1009.3 |
| 20260509203247 | 56 | 117 | 1.0 | 1.0 | 0.00 | 0.19 | 0.19 | 96 | 1009.4 |
| 20260509202742 | 56 | 157 | 0.0 | 2.0 | 0.00 | 0.19 | 0.19 | 96 | 1009.6 |
| 20260509202238 | 56 | 159 | 2.0 | 2.0 | 0.00 | 0.19 | 0.19 | 96 | 1009.6 |
| 20260509201733 | 55 | 174 | 1.0 | 2.0 | 0.00 | 0.19 | 0.19 | 97 | 1009.5 |
| 20260509201230 | 56 | 165 | 0.0 | 2.0 | 0.00 | 0.19 | 0.19 | 97 | 1009.5 |
| 20260509200726 | 55 | 180 | 0.0 | 1.0 | 0.00 | 0.19 | 0.19 | 98 | 1009.5 |
| 20260509200221 | 55 | 270 | 0.0 | 0.0 | 0.00 | 0.19 | 0.19 | 98 | 1009.4 |
| 20260509195717 | 55 | 270 | 0.0 | 0.0 | 0.00 | 0.19 | 0.19 | 99 | 1009.5 |
| 20260509195213 | 55 | 270 | 0.0 | 0.0 | 0.00 | 0.19 | 0.19 | 99 | 1009.5 |
| 20260509194707 | 55 | 279 | 0.0 | 1.0 | 0.00 | 0.19 | 0.19 | 99 | 1009.7 |
| 20260509194204 | 55 | 261 | 0.0 | 0.0 | 0.00 | 0.19 | 0.19 | 99 | 1009.6 |
| 20260509193700 | 55 | 261 | 0.0 | 0.0 | 0.00 | 0.19 | 0.19 | 99 | 1009.6 |
| 20260509193155 | 54 | 194 | 0.0 | 2.0 | 0.00 | 0.19 | 0.19 | 99 | 1009.8 |
| 20260509192652 | 55 | 243 | 0.0 | 0.0 | 0.00 | 0.19 | 0.19 | 99 | 1009.9 |
| 20260509192147 | 55 | 243 | 0.0 | 0.0 | 0.00 | 0.19 | 0.19 | 99 | 1010.0 |
| 20260509191648 | 55 | 243 | 0.0 | 0.0 | 0.02 | 0.19 | 0.19 | 99 | 1009.9 |
| 20260509191144 | 54 | 243 | 0.0 | 0.0 | 0.02 | 0.19 | 0.19 | 99 | 1010.2 |
| 20260509190641 | 55 | 124 | 0.0 | 0.0 | 0.02 | 0.18 | 0.18 | 99 | 1010.3 |
| 20260509190138 | 54 | 261 | 0.0 | 0.0 | 0.05 | 0.18 | 0.18 | 99 | 1010.5 |
| 20260509185636 | 54 | 180 | 0.0 | 0.0 | 0.02 | 0.18 | 0.18 | 99 | 1010.6 |
| 20260509185131 | 54 | 203 | 1.0 | 2.0 | 0.02 | 0.18 | 0.18 | 99 | 1010.6 |
| 20260509184624 | 54 | 157 | 0.0 | 0.0 | 0.05 | 0.18 | 0.18 | 99 | 1010.7 |
| 20260509184120 | 55 | 173 | 0.0 | 1.0 | 0.02 | 0.17 | 0.17 | 99 | 1010.9 |
| 20260509183616 | 55 | 195 | 0.0 | 0.0 | 0.05 | 0.17 | 0.17 | 99 | 1010.7 |
| 20260509183112 | 55 | 195 | 0.0 | 0.0 | 0.02 | 0.17 | 0.17 | 99 | 1010.7 |
| 20260509182608 | 54 | 195 | 0.0 | 1.0 | 0.02 | 0.16 | 0.16 | 99 | 1010.5 |
| 20260509182105 | 55 | 180 | 0.0 | 0.0 | 0.02 | 0.16 | 0.16 | 99 | 1010.7 |
| 20260509181604 | 55 | 180 | 0.0 | 2.0 | 0.05 | 0.16 | 0.16 | 99 | 1010.7 |
| 20260509181101 | 55 | 180 | 0.0 | 0.0 | 0.02 | 0.15 | 0.15 | 99 | 1010.9 |
| 20260509180556 | 55 | 261 | 0.0 | 0.0 | 0.02 | 0.15 | 0.15 | 99 | 1010.5 |
| 20260509180054 | 54 | 116 | 3.0 | 3.0 | 0.02 | 0.15 | 0.15 | 98 | 1010.6 |
| 20260509175549 | 55 | 172 | 0.0 | 2.0 | 0.05 | 0.14 | 0.14 | 98 | 1010.7 |
| 20260509175046 | 54 | 220 | 2.0 | 3.0 | 0.05 | 0.14 | 0.14 | 98 | 1010.4 |
| 20260509174542 | 54 | 175 | 0.0 | 3.0 | 0.09 | 0.13 | 0.13 | 99 | 1010.5 |
| 20260509174037 | 55 | 99 | 0.0 | 0.0 | 0.09 | 0.13 | 0.13 | 99 | 1010.8 |
| 20260509173532 | 55 | 106 | 3.0 | 3.0 | 0.05 | 0.12 | 0.12 | 99 | 1010.7 |
| 20260509173029 | 55 | 97 | 0.0 | 2.0 | 0.05 | 0.11 | 0.11 | 99 | 1010.6 |
| 20260509172526 | 55 | 98 | 0.0 | 0.0 | 0.05 | 0.11 | 0.11 | 98 | 1010.6 |
| 20260509172021 | 55 | 145 | 0.0 | 2.0 | 0.07 | 0.10 | 0.10 | 98 | 1010.8 |
| 20260509171518 | 55 | 172 | 0.0 | 0.0 | 0.12 | 0.10 | 0.10 | 97 | 1010.7 |
| 20260509171015 | 55 | 114 | 1.0 | 2.0 | 0.14 | 0.09 | 0.09 | 97 | 1010.7 |
| 20260509170510 | 56 | 99 | 0.0 | 0.0 | 0.19 | 0.07 | 0.07 | 97 | 1010.7 |
| 20260509170006 | 56 | 99 | 0.0 | 0.0 | 0.17 | 0.06 | 0.06 | 95 | 1010.9 |
| 20260509165504 | 57 | 145 | 0.0 | 0.0 | 0.07 | 0.04 | 0.04 | 94 | 1011.1 |
| 20260509165000 | 57 | 145 | 0.0 | 2.0 | 0.02 | 0.03 | 0.03 | 92 | 1011.2 |
| 20260509164457 | 57 | 157 | 0.0 | 0.0 | 0.02 | 0.02 | 0.02 | 92 | 1011.1 |
| 20260509163952 | 57 | 219 | 0.0 | 0.0 | 0.02 | 0.02 | 0.02 | 89 | 1011.0 |
| 20260509163451 | 57 | 225 | 0.0 | 2.0 | 0.05 | 0.02 | 0.02 | 89 | 1010.9 |
| 20260509162949 | 57 | 170 | 0.0 | 2.0 | 0.02 | 0.02 | 0.02 | 86 | 1010.9 |
| 20260509162448 | 58 | 90 | 0.0 | 1.0 | 0.02 | 0.01 | 0.01 | 86 | 1011.0 |
| 20260509161944 | 59 | 180 | 0.0 | 0.0 | 0.00 | 0.01 | 0.01 | 86 | 1011.1 |
| 20260509161440 | 59 | 180 | 3.0 | 3.0 | 0.00 | 0.01 | 0.01 | 84 | 1010.9 |
| 20260509160936 | 59 | 180 | 0.0 | 2.0 | 0.00 | 0.01 | 0.01 | 83 | 1010.9 |
| 20260509160432 | 59 | 277 | 0.0 | 1.0 | 0.00 | 0.01 | 0.01 | 82 | 1011.0 |
| 20260509155927 | 59 | 151 | 0.0 | 3.0 | 0.00 | 0.01 | 0.01 | 81 | 1011.1 |
| 20260509155424 | 59 | 176 | 2.0 | 3.0 | 0.00 | 0.01 | 0.01 | 82 | 1011.1 |
| 20260509154920 | 59 | 172 | 0.0 | 4.0 | 0.00 | 0.01 | 0.01 | 80 | 1011.1 |
| 20260509154417 | 59 | 189 | 2.0 | 3.0 | 0.00 | 0.01 | 0.01 | 80 | 1011.1 |
| 20260509153914 | 59 | 160 | 0.0 | 2.0 | 0.00 | 0.01 | 0.01 | 81 | 1011.2 |
| 20260509153411 | 60 | 81 | 0.0 | 0.0 | 0.00 | 0.01 | 0.01 | 83 | 1011.2 |
| 20260509152908 | 59 | 180 | 0.0 | 2.0 | 0.00 | 0.01 | 0.01 | 83 | 1011.1 |
| 20260509152404 | 58 | 150 | 2.0 | 2.0 | 0.00 | 0.01 | 0.01 | 83 | 1011.3 |
| 20260509151901 | 58 | 82 | 0.0 | 0.0 | 0.00 | 0.01 | 0.01 | 85 | 1011.3 |
| 20260509151356 | 58 | 40 | 2.0 | 2.0 | 0.00 | 0.01 | 0.01 | 86 | 1011.2 |
| 20260509150855 | 57 | 28 | 0.0 | 0.0 | 0.00 | 0.01 | 0.01 | 89 | 1011.2 |
| 20260509150353 | 56 | 20 | 0.0 | 0.0 | 0.00 | 0.01 | 0.01 | 90 | 1011.2 |
| 20260509145850 | 56 | 20 | 0.0 | 0.0 | 0.00 | 0.01 | 0.01 | 90 | 1011.0 |
| 20260509145344 | 56 | 20 | 0.0 | 0.0 | 0.00 | 0.01 | 0.01 | 91 | 1010.7 |
| 20260509144841 | 56 | 20 | 0.0 | 0.0 | 0.00 | 0.01 | 0.01 | 92 | 1010.8 |
| 20260509144338 | 56 | 20 | 0.0 | 0.0 | 0.00 | 0.01 | 0.01 | 90 | 1010.9 |
| 20260509143835 | 56 | 74 | 0.0 | 1.0 | 0.00 | 0.01 | 0.01 | 89 | 1010.9 |
| 20260509143333 | 56 | 48 | 2.0 | 2.0 | 0.00 | 0.01 | 0.01 | 89 | 1011.1 |
| 20260509142828 | 56 | 60 | 0.0 | 0.0 | 0.00 | 0.01 | 0.01 | 89 | 1011.0 |
| 20260509142325 | 56 | 60 | 0.0 | 0.0 | 0.00 | 0.01 | 0.01 | 88 | 1010.9 |
| 20260509141820 | 56 | 60 | 0.0 | 1.0 | 0.00 | 0.01 | 0.01 | 89 | 1010.9 |
| 20260509141318 | 56 | 99 | 0.0 | 0.0 | 0.00 | 0.01 | 0.01 | 89 | 1010.9 |
| 20260509140814 | 56 | 99 | 0.0 | 0.0 | 0.00 | 0.01 | 0.01 | 91 | 1011.1 |
| 20260509140311 | 56 | 99 | 0.0 | 0.0 | 0.00 | 0.01 | 0.01 | 91 | 1010.9 |
| 20260509135809 | 56 | 99 | 0.0 | 0.0 | 0.00 | 0.01 | 0.01 | 92 | 1010.9 |
| 20260509135306 | 55 | 165 | 0.0 | 0.0 | 0.02 | 0.01 | 0.01 | 92 | 1011.0 |
| 20260509134803 | 55 | 165 | 0.0 | 0.0 | 0.02 | 0.01 | 0.01 | 91 | 1011.2 |
| 20260509134301 | 56 | 165 | 0.0 | 0.0 | 0.00 | 0.00 | 0.00 | 92 | 1010.9 |
| 20260509133758 | 55 | 165 | 0.0 | 0.0 | 0.00 | 0.00 | 0.00 | 92 | 1010.7 |
| 20260509133254 | 55 | 165 | 0.0 | 0.0 | 0.00 | 0.00 | 0.00 | 91 | 1011.0 |
| 20260509132753 | 55 | 165 | 0.0 | 0.0 | 0.02 | 0.00 | 0.00 | 91 | 1010.7 |
| 20260509132252 | 55 | 165 | 0.0 | 0.0 | 0.02 | 0.00 | 0.00 | 89 | 1010.8 |
| 20260509131748 | 55 | 165 | 0.0 | 1.0 | 0.00 | 0.00 | 0.00 | 90 | 1010.9 |
| 20260509131244 | 55 | 106 | 0.0 | 0.0 | 0.00 | 0.00 | 0.00 | 89 | 1010.3 |
| 20260509130740 | 55 | 106 | 0.0 | 0.0 | 0.00 | 0.00 | 0.00 | 89 | 1010.4 |
| 20260509130236 | 55 | 106 | 0.0 | 0.0 | 0.00 | 0.00 | 0.00 | 89 | 1010.6 |
| 20260509125733 | 55 | 106 | 0.0 | 1.0 | 0.00 | 0.00 | 0.00 | 89 | 1010.7 |
| 20260509125230 | 54 | 90 | 0.0 | 0.0 | 0.00 | 0.00 | 0.00 | 90 | 1010.7 |
| 20260509124726 | 54 | 90 | 0.0 | 0.0 | 0.00 | 0.00 | 0.00 | 90 | 1010.9 |
| 20260509124223 | 54 | 90 | 0.0 | 0.0 | 0.00 | 0.00 | 0.00 | 88 | 1011.0 |
| 20260509123721 | 54 | 90 | 0.0 | 0.0 | 0.00 | 0.00 | 0.00 | 89 | 1010.7 |
| 20260509123218 | 54 | 66 | 0.0 | 0.0 | 0.00 | 0.00 | 0.00 | 90 | 1010.9 |
| 20260509122714 | 54 | 81 | 0.0 | 0.0 | 0.00 | 0.00 | 0.00 | 89 | 1011.1 |
| 20260509122211 | 54 | 81 | 0.0 | 0.0 | 0.00 | 0.00 | 0.00 | 88 | 1011.0 |
| 20260509121707 | 54 | 97 | 1.0 | 2.0 | 0.00 | 0.00 | 0.00 | 85 | 1011.0 |
| 20260509121205 | 53 | 90 | 0.0 | 1.0 | 0.00 | 0.00 | 0.00 | 86 | 1010.8 |
| 20260509120703 | 53 | 81 | 0.0 | 2.0 | 0.00 | 0.00 | 0.00 | 86 | 1011.2 |
| 20260509120201 | 53 | 165 | 0.0 | 1.0 | 0.00 | 0.00 | 0.00 | 86 | 1011.4 |
| 20260509115658 | 53 | 66 | 0.0 | 0.0 | 0.00 | 0.00 | 0.00 | 88 | 1011.0 |
| 20260509115155 | 53 | 106 | 0.0 | 0.0 | 0.00 | 0.00 | 0.00 | 87 | 1011.1 |
| 20260509114654 | 53 | 106 | 0.0 | 0.0 | 0.00 | 0.00 | 0.00 | 91 | 1010.9 |
| 20260509114152 | 52 | 106 | 0.0 | 2.0 | 0.00 | 0.00 | 0.00 | 92 | 1010.9 |
| 20260509113650 | 52 | 99 | 0.0 | 0.0 | 0.00 | 0.00 | 0.00 | 92 | 1010.7 |
| 20260509113147 | 52 | 109 | 2.0 | 2.0 | 0.00 | 0.00 | 0.00 | 93 | 1010.7 |
| 20260509112644 | 52 | 140 | 0.0 | 0.0 | 0.00 | 0.00 | 0.00 | 93 | 1010.6 |
| 20260509112141 | 51 | 140 | 0.0 | 0.0 | 0.00 | 0.00 | 0.00 | 93 | 1010.6 |
| 20260509111638 | 51 | 164 | 0.0 | 2.0 | 0.00 | 0.00 | 0.00 | 94 | 1010.8 |
| 20260509111135 | 51 | 90 | 0.0 | 2.0 | 0.00 | 0.00 | 0.00 | 94 | 1010.4 |
| 20260509110632 | 51 | 63 | 0.0 | 0.0 | 0.00 | 0.00 | 0.00 | 94 | 1010.4 |
| 20260509110129 | 50 | 151 | 0.0 | 1.0 | 0.00 | 0.00 | 0.00 | 94 | 1010.8 |
| 20260509105627 | 50 | 166 | 1.0 | 1.0 | 0.00 | 0.00 | 0.00 | 94 | 1010.6 |
| 20260509105124 | 50 | 180 | 0.0 | 0.0 | 0.00 | 0.00 | 0.00 | 94 | 1010.5 |
| 20260509104621 | 50 | 173 | 0.0 | 0.0 | 0.00 | 0.00 | 0.00 | 95 | 1010.4 |
| 20260509104118 | 50 | 173 | 0.0 | 1.0 | 0.00 | 0.00 | 0.00 | 95 | 1010.6 |
| 20260509103616 | 49 | 172 | 0.0 | 0.0 | 0.00 | 0.00 | 0.00 | 95 | 1010.6 |
| 20260509103113 | 49 | 114 | 0.0 | 0.0 | 0.00 | 0.00 | 0.00 | 96 | 1010.4 |
| 20260509102610 | 49 | 114 | 0.0 | 2.0 | 0.00 | 0.00 | 0.00 | 96 | 1010.4 |
| 20260509102107 | 49 | 172 | 0.0 | 1.0 | 0.00 | 0.00 | 0.00 | 96 | 1010.4 |
| 20260509101604 | 49 | 166 | 0.0 | 1.0 | 0.00 | 0.00 | 0.00 | 97 | 1010.3 |
| 20260509101101 | 48 | 126 | 0.0 | 0.0 | 0.00 | 0.00 | 0.00 | 97 | 1010.3 |
| 20260509100558 | 48 | 60 | 1.0 | 2.0 | 0.00 | 0.00 | 0.00 | 97 | 1010.1 |
| 20260509100055 | 48 | 106 | 0.0 | 2.0 | 0.00 | 0.00 | 0.00 | 97 | 1010.5 |
| 20260509095551 | 48 | 191 | 0.0 | 0.0 | 0.00 | 0.00 | 0.00 | 97 | 1010.6 |
| 20260509095049 | 48 | 120 | 0.0 | 1.0 | 0.00 | 0.00 | 0.00 | 97 | 1010.3 |
| 20260509094545 | 48 | 106 | 0.0 | 1.0 | 0.00 | 0.00 | 0.00 | 97 | 1010.5 |
| 20260509094043 | 48 | 120 | 0.0 | 1.0 | 0.00 | 0.00 | 0.00 | 97 | 1010.6 |
| 20260509093541 | 48 | 120 | 0.0 | 0.0 | 0.00 | 0.00 | 0.00 | 97 | 1010.8 |
| 20260509093038 | 48 | 81 | 0.0 | 0.0 | 0.00 | 0.00 | 0.00 | 97 | 1010.6 |
| 20260509092536 | 48 | 114 | 0.0 | 1.0 | 0.00 | 0.00 | 0.00 | 96 | 1010.6 |
| 20260509092034 | 48 | 98 | 0.0 | 0.0 | 0.00 | 0.00 | 0.00 | 96 | 1010.7 |
| 20260509091531 | 48 | 106 | 0.0 | 0.0 | 0.00 | 0.00 | 0.00 | 96 | 1010.5 |
| 20260509091028 | 48 | 174 | 0.0 | 0.0 | 0.00 | 0.00 | 0.00 | 96 | 1010.6 |
| 20260509090525 | 48 | 174 | 0.0 | 1.0 | 0.00 | 0.00 | 0.00 | 96 | 1010.6 |
| 20260509090023 | 48 | 165 | 0.0 | 0.0 | 0.00 | 0.00 | 0.00 | 96 | 1010.6 |
| 20260509085519 | 48 | 187 | 1.0 | 2.0 | 0.00 | 0.00 | 0.00 | 96 | 1010.7 |
| 20260509085015 | 48 | 99 | 0.0 | 0.0 | 0.00 | 0.00 | 0.00 | 96 | 1010.5 |
| 20260509084513 | 48 | 120 | 0.0 | 1.0 | 0.00 | 0.00 | 0.00 | 96 | 1010.8 |
| 20260509084010 | 48 | 173 | 0.0 | 0.0 | 0.00 | 0.00 | 0.00 | 96 | 1011.1 |
| 20260509083507 | 48 | 180 | 0.0 | 1.0 | 0.00 | 0.00 | 0.00 | 96 | 1011.1 |
| 20260509083003 | 48 | 180 | 0.0 | 1.0 | 0.00 | 0.00 | 0.00 | 97 | 1011.2 |
| 20260509082501 | 48 | 120 | 0.0 | 1.0 | 0.00 | 0.00 | 0.00 | 96 | 1010.9 |
| 20260509081958 | 48 | 106 | 0.0 | 1.0 | 0.00 | 0.00 | 0.00 | 96 | 1011.2 |
| 20260509081455 | 48 | 106 | 0.0 | 1.0 | 0.00 | 0.00 | 0.00 | 96 | 1011.0 |
| 20260509080952 | 48 | 98 | 1.0 | 2.0 | 0.00 | 0.00 | 0.00 | 96 | 1011.0 |
| 20260509080450 | 48 | 126 | 1.0 | 2.0 | 0.00 | 0.00 | 0.00 | 96 | 1011.3 |
| 20260509075948 | 48 | 174 | 1.0 | 1.0 | 0.00 | 0.00 | 0.00 | 96 | 1011.2 |
| 20260509075445 | 48 | 187 | 0.0 | 1.0 | 0.00 | 0.00 | 0.00 | 96 | 1011.1 |
| 20260509074943 | 48 | 180 | 1.0 | 1.0 | 0.00 | 0.00 | 0.00 | 96 | 1011.0 |
| 20260509074440 | 49 | 172 | 0.0 | 0.0 | 0.00 | 0.00 | 0.00 | 96 | 1011.2 |
| 20260509073936 | 49 | 184 | 2.0 | 2.0 | 0.00 | 0.00 | 0.00 | 95 | 1011.3 |
| 20260509073433 | 48 | 195 | 0.0 | 2.0 | 0.00 | 0.00 | 0.00 | 96 | 1011.1 |
| 20260509072929 | 48 | 99 | 0.0 | 0.0 | 0.00 | 0.00 | 0.00 | 95 | 1011.1 |
| 20260509072426 | 48 | 106 | 0.0 | 0.0 | 0.00 | 0.00 | 0.00 | 94 | 1011.3 |
| 20260509071923 | 48 | 106 | 0.0 | 1.0 | 0.00 | 0.00 | 0.00 | 94 | 1011.3 |
| 20260509071420 | 48 | 99 | 0.0 | 1.0 | 0.00 | 0.00 | 0.00 | 93 | 1011.0 |
| 20260509070917 | 49 | 114 | 0.0 | 1.0 | 0.00 | 0.00 | 0.00 | 93 | 1011.2 |
| 20260509070415 | 49 | 109 | 1.0 | 1.0 | 0.00 | 0.00 | 0.00 | 92 | 1011.1 |
| 20260509065909 | 50 | 114 | 0.0 | 1.0 | 0.00 | 0.00 | 0.00 | 92 | 1011.3 |
| 20260509065406 | 50 | 105 | 1.0 | 2.0 | 0.00 | 0.00 | 0.00 | 92 | 1011.0 |
| 20260509064902 | 50 | 114 | 0.0 | 1.0 | 0.00 | 0.00 | 0.00 | 93 | 1011.1 |
| 20260509064400 | 50 | 99 | 0.0 | 0.0 | 0.00 | 0.00 | 0.00 | 92 | 1011.3 |
| 20260509063857 | 51 | 140 | 0.0 | 0.0 | 0.00 | 0.00 | 0.00 | 92 | 1011.4 |
| 20260509063353 | 51 | 166 | 0.0 | 0.0 | 0.00 | 0.00 | 0.00 | 92 | 1011.4 |
| 20260509062850 | 51 | 166 | 0.0 | 0.0 | 0.00 | 0.00 | 0.00 | 92 | 1011.2 |
| 20260509062347 | 51 | 166 | 0.0 | 1.0 | 0.00 | 0.00 | 0.00 | 92 | 1011.3 |
| 20260509061844 | 51 | 140 | 0.0 | 1.0 | 0.00 | 0.00 | 0.00 | 91 | 1011.3 |
| 20260509061343 | 51 | 123 | 0.0 | 0.0 | 0.00 | 0.00 | 0.00 | 91 | 1011.5 |
| 20260509060839 | 51 | 180 | 0.0 | 2.0 | 0.00 | 0.00 | 0.00 | 91 | 1011.4 |
| 20260509060336 | 51 | 162 | 0.0 | 1.0 | 0.00 | 0.00 | 0.00 | 91 | 1011.4 |
| 20260509055831 | 51 | 173 | 0.0 | 1.0 | 0.00 | 0.00 | 0.00 | 92 | 1011.5 |
| 20260509055327 | 51 | 188 | 0.0 | 2.0 | 0.00 | 0.00 | 0.00 | 93 | 1011.4 |
| 20260509054824 | 50 | 120 | 0.0 | 0.0 | 0.00 | 0.00 | 0.00 | 92 | 1011.3 |
| 20260509054321 | 50 | 105 | 0.0 | 0.0 | 0.00 | 0.00 | 0.00 | 92 | 1011.5 |
| 20260509053820 | 51 | 105 | 0.0 | 1.0 | 0.00 | 0.00 | 0.00 | 92 | 1011.6 |
| 20260509053317 | 51 | 99 | 0.0 | 1.0 | 0.00 | 0.00 | 0.00 | 92 | 1011.5 |
| 20260509052814 | 50 | 148 | 0.0 | 2.0 | 0.00 | 0.00 | 0.00 | 92 | 1011.7 |
| 20260509052312 | 51 | 157 | 0.0 | 1.0 | 0.00 | 0.00 | 0.00 | 93 | 1011.3 |
| 20260509051809 | 51 | 286 | 0.0 | 1.0 | 0.00 | 0.00 | 0.00 | 93 | 1011.7 |
| 20260509051307 | 51 | 99 | 0.0 | 1.0 | 0.00 | 0.00 | 0.00 | 92 | 1011.6 |
| 20260509050803 | 51 | 97 | 0.0 | 1.0 | 0.00 | 0.00 | 0.00 | 92 | 1012.1 |
| 20260509050300 | 51 | 107 | 2.0 | 2.0 | 0.00 | 0.00 | 0.00 | 92 | 1012.1 |
| 20260509045758 | 51 | 99 | 0.0 | 0.0 | 0.00 | 0.00 | 0.00 | 92 | 1012.2 |
| 20260509045254 | 51 | 103 | 0.0 | 2.0 | 0.00 | 0.00 | 0.00 | 92 | 1012.1 |
| 20260509044751 | 51 | 120 | 0.0 | 0.0 | 0.00 | 0.00 | 0.00 | 92 | 1012.1 |
| 20260509044249 | 51 | 99 | 0.0 | 0.0 | 0.00 | 0.00 | 0.00 | 91 | 1012.1 |
| 20260509043745 | 52 | 106 | 0.0 | 1.0 | 0.00 | 0.00 | 0.00 | 91 | 1012.2 |